TimeMST,TemperatureF,Dew PointF,Humidity,Sea Level PressureIn,VisibilityMPH,Wind Direction,Wind SpeedMPH,Gust SpeedMPH,PrecipitationIn,Events,Conditions,WindDirDegrees,DateUTC
12:15 AM,24.8,10.4,54,29.77,10.0,Calm,Calm,-,N/A,,Clear,0,2013-02-18 07:15:00
12:35 AM,24.8,8.6,50,29.78,10.0,WNW,5.8,-,N/A,,Clear,300,2013-02-18 07:35:00
12:55 AM,17.6,8.6,68,29.78,10.0,North,4.6,-,N/A,,Clear,350,2013-02-18 07:55:00
1:15 AM,19.4,6.8,58,29.78,10.0,NNW,3.5,-,N/A,,Clear,330,2013-02-18 08:15:00
1:35 AM,21.2,6.8,54,29.78,10.0,NNE,9.2,-,N/A,,Clear,20,2013-02-18 08:35:00
2:15 AM,28.4,8.6,43,29.78,10.0,NE,4.6,-,N/A,,Clear,50,2013-02-18 09:15:00
2:35 AM,30.2,10.4,44,29.77,10.0,SSE,5.8,-,N/A,,Clear,160,2013-02-18 09:35:00
2:55 AM,28.4,8.6,43,29.78,10.0,West,10.4,-,N/A,,Clear,260,2013-02-18 09:55:00
3:15 AM,30.2,10.4,44,29.79,10.0,West,15.0,-,N/A,,Clear,260,2013-02-18 10:15:00
3:35 AM,30.2,10.4,44,29.79,10.0,WSW,12.7,-,N/A,,Clear,250,2013-02-18 10:35:00
3:55 AM,28.4,8.6,43,29.80,10.0,WSW,11.5,-,N/A,,Clear,240,2013-02-18 10:55:00
4:15 AM,26.6,8.6,47,29.81,10.0,WSW,12.7,-,N/A,,Clear,240,2013-02-18 11:15:00
4:35 AM,26.6,10.4,51,29.82,10.0,WSW,15.0,-,N/A,,Clear,240,2013-02-18 11:35:00
4:55 AM,26.6,10.4,51,29.83,10.0,WSW,17.3,-,N/A,,Clear,240,2013-02-18 11:55:00
5:15 AM,28.4,10.4,47,29.84,10.0,WSW,15.0,-,N/A,,Clear,250,2013-02-18 12:15:00
5:35 AM,28.4,10.4,47,29.87,10.0,SW,10.4,-,N/A,,Clear,230,2013-02-18 12:35:00
5:55 AM,28.4,10.4,47,29.89,10.0,WSW,10.4,-,N/A,,Clear,240,2013-02-18 12:55:00
6:15 AM,26.6,8.6,47,29.90,10.0,SW,10.4,-,N/A,,Clear,230,2013-02-18 13:15:00
6:35 AM,26.6,8.6,47,29.91,10.0,SW,9.2,-,N/A,,Clear,230,2013-02-18 13:35:00
6:55 AM,24.8,8.6,50,29.91,10.0,West,11.5,-,N/A,,Clear,260,2013-02-18 13:55:00
7:15 AM,26.6,8.6,47,29.93,10.0,West,10.4,-,N/A,,Clear,280,2013-02-18 14:15:00
7:35 AM,26.6,8.6,47,29.95,10.0,West,9.2,-,N/A,,Clear,280,2013-02-18 14:35:00
7:55 AM,28.4,8.6,43,29.96,10.0,WNW,10.4,-,N/A,,Clear,300,2013-02-18 14:55:00
8:15 AM,30.2,8.6,40,29.98,10.0,North,11.5,-,N/A,,Clear,10,2013-02-18 15:15:00
8:35 AM,30.2,8.6,40,29.99,10.0,NNE,17.3,21.9,N/A,,Clear,20,2013-02-18 15:35:00
8:55 AM,30.2,8.6,40,30.00,10.0,NNE,17.3,24.2,N/A,,Clear,20,2013-02-18 15:55:00
9:15 AM,32.0,8.6,38,30.01,10.0,NNE,19.6,24.2,N/A,,Clear,20,2013-02-18 16:15:00
9:35 AM,32.0,6.8,35,30.02,10.0,North,17.3,26.5,N/A,,Clear,360,2013-02-18 16:35:00
9:55 AM,33.8,6.8,32,30.02,10.0,North,16.1,24.2,N/A,,Clear,360,2013-02-18 16:55:00
10:15 AM,33.8,3.2,28,30.03,10.0,North,17.3,20.7,N/A,,Clear,360,2013-02-18 17:15:00
10:35 AM,33.8,3.2,28,30.04,10.0,North,15.0,23.0,N/A,,Clear,10,2013-02-18 17:35:00
10:55 AM,35.6,5.0,28,30.05,10.0,North,10.4,23.0,N/A,,Clear,350,2013-02-18 17:55:00
11:15 AM,35.6,3.2,26,30.05,10.0,NNE,8.1,17.3,N/A,,Clear,30,2013-02-18 18:15:00
11:35 AM,35.6,3.2,26,30.05,10.0,North,9.2,17.3,N/A,,Clear,350,2013-02-18 18:35:00
11:55 AM,37.4,1.4,22,30.04,10.0,NNW,6.9,-,N/A,,Clear,330,2013-02-18 18:55:00
12:15 PM,35.6,1.4,24,30.03,10.0,NW,4.6,-,N/A,,Clear,310,2013-02-18 19:15:00
12:35 PM,37.4,3.2,24,30.02,10.0,NNE,4.6,-,N/A,,Clear,20,2013-02-18 19:35:00
12:55 PM,39.2,5.0,24,30.01,10.0,NW,9.2,-,N/A,,Clear,310,2013-02-18 19:55:00
1:15 PM,39.2,6.8,26,30.01,10.0,Calm,Calm,-,N/A,,Clear,0,2013-02-18 20:15:00
1:35 PM,39.2,3.2,22,30.01,10.0,South,3.5,-,N/A,,Clear,170,2013-02-18 20:35:00
1:55 PM,39.2,6.8,26,30.00,10.0,Calm,Calm,-,N/A,,Clear,0,2013-02-18 20:55:00
2:15 PM,41.0,6.8,24,30.00,10.0,SSW,12.7,-,N/A,,Clear,210,2013-02-18 21:15:00
2:35 PM,41.0,6.8,24,30.00,10.0,South,10.4,-,N/A,,Clear,170,2013-02-18 21:35:00
2:55 PM,42.8,6.8,23,30.00,10.0,SW,6.9,-,N/A,,Clear,230,2013-02-18 21:55:00
3:15 PM,42.8,3.2,19,30.00,10.0,South,9.2,20.7,N/A,,Clear,190,2013-02-18 22:15:00
3:35 PM,42.8,3.2,19,29.99,10.0,SW,17.3,23.0,N/A,,Clear,230,2013-02-18 22:35:00
3:55 PM,42.8,1.4,18,29.99,10.0,SW,15.0,-,N/A,,Clear,230,2013-02-18 22:55:00
4:15 PM,42.8,1.4,18,30.00,10.0,West,16.1,-,N/A,,Clear,280,2013-02-18 23:15:00
4:35 PM,42.8,-0.4,16,30.00,10.0,WSW,17.3,-,N/A,,Clear,250,2013-02-18 23:35:00
4:55 PM,41.0,-0.4,18,30.02,10.0,West,13.8,-,N/A,,Clear,270,2013-02-18 23:55:00
5:15 PM,39.2,-2.2,17,30.02,10.0,West,11.5,-,N/A,,Clear,270,2013-02-19 00:15:00
5:35 PM,37.4,-2.2,19,30.03,10.0,West,8.1,-,N/A,,Clear,280,2013-02-19 00:35:00
5:55 PM,33.8,-2.2,22,30.04,10.0,West,9.2,-,N/A,,Clear,260,2013-02-19 00:55:00
6:15 PM,30.2,-2.2,25,30.04,10.0,WSW,9.2,-,N/A,,Clear,250,2013-02-19 01:15:00
6:35 PM,28.4,-2.2,27,30.05,10.0,West,11.5,-,N/A,,Clear,270,2013-02-19 01:35:00
6:55 PM,26.6,-0.4,31,30.06,10.0,West,9.2,-,N/A,,Clear,260,2013-02-19 01:55:00
7:15 PM,24.8,-0.4,34,30.07,10.0,West,3.5,-,N/A,,Clear,280,2013-02-19 02:15:00
7:35 PM,28.4,1.4,31,30.08,10.0,WNW,3.5,-,N/A,,Clear,300,2013-02-19 02:35:00
7:55 PM,26.6,1.4,34,30.08,10.0,WNW,4.6,-,N/A,,Clear,290,2013-02-19 02:55:00
8:15 PM,24.8,1.4,36,30.09,10.0,Calm,Calm,-,N/A,,Clear,0,2013-02-19 03:15:00
8:35 PM,19.4,1.4,46,30.09,10.0,ESE,6.9,-,N/A,,Clear,110,2013-02-19 03:35:00
8:55 PM,21.2,6.8,54,30.10,10.0,East,3.5,-,N/A,,Clear,100,2013-02-19 03:55:00
9:15 PM,19.4,1.4,46,30.10,10.0,ESE,4.6,-,N/A,,Clear,110,2013-02-19 04:15:00
9:35 PM,21.2,3.2,46,30.11,10.0,SE,8.1,-,N/A,,Clear,140,2013-02-19 04:35:00
9:55 PM,17.6,3.2,53,30.11,10.0,ESE,6.9,-,N/A,,Clear,120,2013-02-19 04:55:00
10:15 PM,19.4,5.0,54,30.11,10.0,SE,8.1,-,N/A,,Clear,130,2013-02-19 05:15:00
10:35 PM,19.4,5.0,54,30.12,10.0,ESE,9.2,-,N/A,,Clear,110,2013-02-19 05:35:00
10:55 PM,19.4,5.0,54,30.13,10.0,ESE,9.2,-,N/A,,Clear,110,2013-02-19 05:55:00
11:15 PM,19.4,5.0,54,30.12,10.0,ESE,8.1,-,N/A,,Clear,110,2013-02-19 06:15:00
11:35 PM,17.6,3.2,53,30.12,10.0,East,9.2,-,N/A,,Clear,100,2013-02-19 06:35:00
11:55 PM,15.8,3.2,58,30.12,10.0,East,3.5,-,N/A,,Clear,90,2013-02-19 06:55:00